• In Belarus
  • List of Countries
  • For 7 days
  • Water Temperature
  • Satellite Maps
  • Weather Map
  • Weather Widgets
  • user-avatar
    Login

    Hourly Weather Chandrapur

    Today, 18 January, Friday

    Time Temperature Precipitation Wind Pressure Humidity
    00:00 +21°C° 0 mm 1 mps 745 mmHg 36%
    01:00 +20°C° 0 mm 1 mps 745 mmHg 37%
    02:00 +19°C° 0 mm 1 mps 744 mmHg 38%
    03:00 +19°C° 0 mm 1 mps 745 mmHg 39%
    04:00 +18°C° 0 mm 1 mps 745 mmHg 40%
    05:00 +18°C° 0 mm 1 mps 744 mmHg 42%
    06:00 +19°C° 0 mm 1 mps 745 mmHg 40%
    07:00 +20°C° 0 mm 1 mps 745 mmHg 39%
    08:00 +22°C° 0 mm 1 mps 746 mmHg 37%
    09:00 +24°C° 0 mm 1 mps 746 mmHg 33%
    10:00 +25°C° 0 mm 0 mps 746 mmHg 28%
    11:00 +29°C° 0 mm 1 mps 746 mmHg 25%
    12:00 +30°C° 0 mm 1 mps 746 mmHg 24%
    13:00 +31°C° 0 mm 1 mps 745 mmHg 23%
    14:00 +32°C° 0 mm 1 mps 744 mmHg 21%
    15:00 +30°C° 0 mm 1 mps 744 mmHg 24%
    16:00 +29°C° 0 mm 1 mps 744 mmHg 27%
    17:00 +27°C° 0 mm 1 mps 744 mmHg 31%
    18:00 +26°C° 0 mm 1 mps 744 mmHg 32%
    19:00 +25°C° 0 mm 1 mps 744 mmHg 34%
    20:00 +23°C° 0 mm 1 mps 745 mmHg 35%
    21:00 +21°C° 0 mm 0 mps 745 mmHg 35%
    22:00 +21°C° 0 mm 0 mps 745 mmHg 36%
    23:00 +20°C° 0 mm 0 mps 745 mmHg 36%

    Tomorrow, 19 January, Saturday

    Time Temperature Precipitation Wind Pressure Humidity
    00:00 +22°C° 0 mm 1 mps 745 mmHg 37%
    01:00 +21°C° 0 mm 1 mps 745 mmHg 38%
    02:00 +19°C° 0 mm 2 mps 745 mmHg 39%
    03:00 +19°C° 0 mm 2 mps 745 mmHg 39%
    04:00 +18°C° 0 mm 2 mps 745 mmHg 39%
    05:00 +17°C° 0 mm 2 mps 745 mmHg 39%
    06:00 +18°C° 0 mm 2 mps 745 mmHg 37%
    07:00 +19°C° 0 mm 2 mps 746 mmHg 35%
    08:00 +20°C° 0 mm 2 mps 746 mmHg 33%
    09:00 +24°C° 0 mm 2 mps 746 mmHg 28%
    10:00 +27°C° 0 mm 2 mps 746 mmHg 24%
    11:00 +30°C° 0 mm 2 mps 746 mmHg 20%
    12:00 +31°C° 0 mm 2 mps 746 mmHg 18%
    13:00 +32°C° 0 mm 2 mps 745 mmHg 17%
    14:00 +34°C° 0 mm 2 mps 744 mmHg 15%
    15:00 +31°C° 0 mm 2 mps 744 mmHg 17%
    16:00 +30°C° 0 mm 2 mps 744 mmHg 19%
    17:00 +29°C° 0 mm 1 mps 744 mmHg 21%
    18:00 +27°C° 0 mm 2 mps 744 mmHg 21%
    19:00 +25°C° 0 mm 2 mps 745 mmHg 21%
    20:00 +24°C° 0 mm 2 mps 745 mmHg 21%
    21:00 +23°C° 0 mm 1 mps 745 mmHg 22%
    22:00 +22°C° 0 mm 1 mps 745 mmHg 23%
    23:00 +22°C° 0 mm 1 mps 745 mmHg 23%

    Day after tomorrow, 20 January, Sunday

    Time Temperature Precipitation Wind Pressure Humidity
    00:00 +21°C° 0 mm 1 mps 745 mmHg 25%
    01:00 +20°C° 0 mm 1 mps 745 mmHg 27%
    02:00 +20°C° 0 mm 1 mps 745 mmHg 28%
    03:00 +19°C° 0 mm 1 mps 745 mmHg 30%
    04:00 +19°C° 0 mm 1 mps 745 mmHg 31%
    05:00 +18°C° 0 mm 1 mps 745 mmHg 33%
    06:00 +19°C° 0 mm 1 mps 746 mmHg 32%
    07:00 +20°C° 0 mm 1 mps 747 mmHg 32%
    08:00 +21°C° 0 mm 1 mps 747 mmHg 31%
    09:00 +24°C° 0 mm 1 mps 747 mmHg 27%
    10:00 +27°C° 0 mm 1 mps 747 mmHg 24%
    11:00 +30°C° 0 mm 1 mps 747 mmHg 20%
    12:00 +31°C° 0 mm 1 mps 746 mmHg 19%
    13:00 +32°C° 0 mm 1 mps 746 mmHg 17%
    14:00 +34°C° 0 mm 1 mps 745 mmHg 16%
    15:00 +30°C° 0 mm 0 mps 745 mmHg 18%
    16:00 +28°C° 0 mm 0 mps 745 mmHg 20%
    17:00 +27°C° 0 mm 0 mps 744 mmHg 22%
    18:00 +25°C° 0 mm 0 mps 745 mmHg 23%
    19:00 +26°C° 0 mm 1 mps 745 mmHg 23%
    20:00 +25°C° 0 mm 1 mps 746 mmHg 24%
    21:00 +24°C° 0 mm 1 mps 746 mmHg 25%
    22:00 +23°C° 0 mm 1 mps 746 mmHg 26%
    23:00 +21°C° 0 mm 0 mps 746 mmHg 26%

    21 January, Monday

    Time Temperature Precipitation Wind Pressure Humidity
    00:00 +22°C° 0 mm 1 mps 745 mmHg 28%
    01:00 +21°C° 0 mm 1 mps 745 mmHg 30%
    02:00 +21°C° 0 mm 1 mps 745 mmHg 31%
    03:00 +20°C° 0 mm 1 mps 745 mmHg 32%
    04:00 +20°C° 0 mm 1 mps 745 mmHg 33%
    05:00 +19°C° 0 mm 1 mps 745 mmHg 34%
    06:00 +20°C° 0 mm 1 mps 745 mmHg 33%
    07:00 +22°C° 0 mm 1 mps 746 mmHg 32%
    08:00 +23°C° 0 mm 1 mps 747 mmHg 32%
    09:00 +25°C° 0 mm 2 mps 746 mmHg 28%
    10:00 +28°C° 0 mm 2 mps 746 mmHg 25%
    11:00 +31°C° 0 mm 3 mps 746 mmHg 21%
    12:00 +33°C° 0 mm 3 mps 745 mmHg 20%
    13:00 +34°C° 0 mm 3 mps 744 mmHg 19%
    14:00 +35°C° 0 mm 2 mps 743 mmHg 19%
    15:00 +34°C° 0 mm 2 mps 743 mmHg 21%
    16:00 +31°C° 0 mm 2 mps 743 mmHg 24%
    17:00 +30°C° 0 mm 2 mps 743 mmHg 26%
    18:00 +29°C° 0 mm 2 mps 743 mmHg 28%
    19:00 +27°C° 0 mm 2 mps 744 mmHg 30%
    20:00 +26°C° 0 mm 2 mps 744 mmHg 32%
    21:00 +25°C° 0 mm 2 mps 744 mmHg 34%
    22:00 +25°C° 0 mm 2 mps 744 mmHg 37%
    23:00 +24°C° 0 mm 2 mps 744 mmHg 39%

    22 January, Tuesday

    Time Temperature Precipitation Wind Pressure Humidity
    00:00 +24°C° 0 mm 2 mps 744 mmHg 42%
    01:00 +22°C° 0 mm 3 mps 743 mmHg 46%
    02:00 +21°C° 0 mm 3 mps 743 mmHg 49%
    03:00 +21°C° 0 mm 3 mps 743 mmHg 53%
    04:00 +20°C° 0 mm 3 mps 743 mmHg 58%
    05:00 +20°C° 0 mm 3 mps 743 mmHg 62%
    06:00 +21°C° 0 mm 3 mps 744 mmHg 61%
    07:00 +23°C° 0 mm 2 mps 745 mmHg 60%
    08:00 +24°C° 0 mm 2 mps 745 mmHg 59%
    09:00 +26°C° 0 mm 3 mps 745 mmHg 50%
    10:00 +29°C° 0 mm 3 mps 745 mmHg 41%
    11:00 +31°C° 0 mm 3 mps 745 mmHg 32%
    12:00 +33°C° 0 mm 3 mps 744 mmHg 29%
    13:00 +34°C° 0 mm 3 mps 743 mmHg 26%
    14:00 +35°C° 0 mm 3 mps 742 mmHg 23%
    15:00 +34°C° 0 mm 2 mps 742 mmHg 25%
    16:00 +32°C° 0 mm 2 mps 742 mmHg 27%
    17:00 +31°C° 0 mm 2 mps 742 mmHg 29%
    18:00 +30°C° 0 mm 2 mps 743 mmHg 30%
    19:00 +28°C° 0 mm 2 mps 744 mmHg 31%
    20:00 +27°C° 0 mm 2 mps 744 mmHg 33%
    21:00 +26°C° 0 mm 3 mps 744 mmHg 33%
    22:00 +26°C° 0 mm 3 mps 744 mmHg 34%
    23:00 +25°C° 0 mm 3 mps 744 mmHg 35%

    23 January, Wednesday

    Time Temperature Precipitation Wind Pressure Humidity
    00:00 +24°C° 0 mm 3 mps 744 mmHg 37%
    01:00 +24°C° 0 mm 3 mps 744 mmHg 39%
    02:00 +22°C° 0 mm 3 mps 743 mmHg 42%
    03:00 +21°C° 0 mm 2 mps 744 mmHg 47%
    04:00 +21°C° 0 mm 2 mps 744 mmHg 53%
    05:00 +21°C° 0 mm 1 mps 744 mmHg 58%
    06:00 +22°C° 0 mm 1 mps 745 mmHg 58%
    07:00 +21°C° 0 mm 2 mps 745 mmHg 59%
    08:00 +23°C° 0 mm 2 mps 746 mmHg 59%
    09:00 +26°C° 0 mm 2 mps 746 mmHg 50%
    10:00 +28°C° 0 mm 2 mps 746 mmHg 40%
    11:00 +31°C° 0 mm 3 mps 746 mmHg 31%
    12:00 +32°C° 0 mm 2 mps 745 mmHg 27%
    13:00 +34°C° 0 mm 2 mps 744 mmHg 24%
    14:00 +35°C° 0 mm 2 mps 743 mmHg 20%
    15:00 +34°C° 0 mm 2 mps 743 mmHg 21%
    16:00 +32°C° 0 mm 1 mps 743 mmHg 23%
    17:00 +31°C° 0 mm 1 mps 743 mmHg 24%
    18:00 +29°C° 0 mm 1 mps 743 mmHg 25%
    19:00 +28°C° 0 mm 1 mps 744 mmHg 26%
    20:00 +26°C° 0 mm 1 mps 745 mmHg 27%
    21:00 +26°C° 0 mm 1 mps 745 mmHg 28%
    22:00 +25°C° 0 mm 1 mps 745 mmHg 28%
    23:00 +25°C° 0 mm 2 mps 745 mmHg 28%
    Show more